This demonstration page uses our WeatherBlox Daily Observations layout. Learn more.

Left ArrowRight Arrow

39.92423, -83.80882

Hourly Observations for June 20, 2018

Temp ( °F °C ) Dew Point ( °F °C ) Humidity (%) Winds ( mph kmh ) Pressure ( in mb ) Visibility ( mi km ) Precip ( " mm )
12:56 am 00:56 Clear 71 21.7 70 21.1 96 96 SW 6 9 29.91 1013 10 16.0934 N/A
1:56 am 01:56 Clear 70 21.1 69 20.6 97 97 W 3 6 29.91 1013 10 16.0934 N/A
2:56 am 02:56 Clear 69 20.6 69 20.6 100 100 N N/A 29.88 1012 8 12.87472 N/A
3:53 am 03:53 Mostly Clear with Mist and Fog 66 19 66 19 100 100 E 3 6 29.88 1012 1.5 2.41401 N/A
3:56 am 03:56 Mostly Clear with Mist and Fog 67 19.4 67 19.4 100 100 E 5 7 29.88 1012 1 1.60934 N/A
4:04 am 04:04 Mostly Clear with Mist and Fog 66 19 66 19 100 100 ESE 3 6 29.88 1012 2 3.21868 N/A
4:13 am 04:13 Mostly Clear with Mist and Fog 68 20 66 19 94 94 SE 5 7 29.88 1012 5 8.0467 N/A
4:56 am 04:56 Mostly Clear with Mist and Fog 69 20.6 69 20.6 100 100 N N/A 29.88 1012 4 6.43736 N/A
5:29 am 05:29 Mostly Clear with Mist and Fog 68 20 68 20 100 100 N N/A 29.88 1012 2.5 4.02335 N/A
5:39 am 05:39 Mostly Clear with Mist and Fog 68 20 68 20 100 100 SSW 3 6 29.88 1012 4 6.43736 N/A
5:56 am 05:56 Mostly Clear with Mist and Fog 68 20 68 20 100 100 N N/A 29.89 1012 3 4.82802 N/A
6:56 am 06:56 Partly Cloudy with Mist and Fog 69 20.6 69 20.6 100 100 SSW 3 6 29.9 1012 5 8.0467 0.01 0.254
7:56 am 07:56 Partly Cloudy with Mist and Fog 70 21.1 70 21.1 100 100 SW 5 7 29.89 1012 5 8.0467 N/A
8:56 am 08:56 Sunny 72 22.2 71 21.7 97 97 SW 6 9 29.89 1012 7 11.26538 N/A
9:56 am 09:56 Sunny 76 24.4 71 21.7 85 85 W 12 19 29.89 1012 10 16.0934 N/A
10:56 am 10:56 Sunny 77 25 70 21.1 79 79 WSW 6 9 29.88 1012 10 16.0934 N/A
11:56 am 11:56 Sunny 80 26.7 70 21.1 71 71 WSW 12 19 29.87 1011 10 16.0934 N/A
12:56 pm 12:56 Sunny 82 27.8 71 21.7 69 69 W 9 15 29.86 1011 10 16.0934 N/A
1:56 pm 13:56 Sunny 83 28.3 72 22.2 70 70 W 10 17 29.84 1011 10 16.0934 N/A
2:56 pm 14:56 Sunny 84 28.9 72 22.2 67 67 WSW 10 17 29.82 1010 10 16.0934 N/A
3:56 pm 15:56 Sunny 82 27.8 71 21.7 69 69 WNW 14 22 29.8 1009 10 16.0934 N/A
4:56 pm 16:56 Sunny 82 27.8 71 21.7 69 69 NW 15 24 29.79 1009 10 16.0934 N/A
5:56 pm 17:56 Sunny 84 28.9 71 21.7 65 65 WNW 12 19 29.8 1009 10 16.0934 N/A
6:56 pm 18:56 Partly Cloudy with Light Rain 76 24.4 70 21.1 82 82 NNW 17 28 29.8 1009 10 16.0934 N/A
7:56 pm 19:56 Sunny 76 24.4 71 21.7 85 85 WNW 5 7 29.8 1009 10 16.0934 N/A
8:56 pm 20:56 Sunny 75 23.9 71 21.7 88 88 NW 5 7 29.81 1010 10 16.0934 N/A
9:56 pm 21:56 Clear 75 23.9 72 22.2 90 90 WNW 5 7 29.84 1010 10 16.0934 N/A
10:14 pm 22:14 Mostly Clear with Heavy Thunderstorms 73 23 72 22 94 94 NNW 13 20 29.85 1011 6 9.65604 0.08 2.032
10:29 pm 22:29 Mostly Clear with Rain 73 23 72 22 94 94 NNE 8 13 29.85 1011 4 6.43736 0.32 8.128
10:56 pm 22:56 Clear 73 22.8 70 21.1 90 90 N 8 13 29.85 1011 10 16.0934 0.33 8.382
11:56 pm 23:56 Clear 72 22.2 70 21.1 94 94 E 3 6 29.85 1011 10 16.0934 N/A

Powered by AerisWeather